Time,TemperatureF,DewpointF,PressureIn,WindDirection,WindDirectionDegrees,WindSpeedMPH,WindSpeedGustMPH,Humidity,HourlyPrecipIn,Conditions,Clouds,dailyrainin,SoftwareType,DateUTC
2013-03-23 00:00:00,25.3,18.1,30.13,WSW,248,0.0,1.5,74,0.00,,,0.00,WUHU216HW,2013-03-23 04:00:00,
2013-03-23 00:01:00,25.1,17.9,30.13,WSW,248,0.0,1.5,74,0.00,,,0.00,WUHU216HW,2013-03-23 04:01:00,
2013-03-23 00:06:00,25.1,17.9,30.13,WSW,248,0.0,0.0,74,0.00,,,0.00,WUHU216HW,2013-03-23 04:06:00,
2013-03-23 00:11:00,24.9,17.7,30.13,WSW,248,0.0,0.0,74,0.00,,,0.00,WUHU216HW,2013-03-23 04:11:00,
2013-03-23 00:16:00,25.1,18.3,30.13,WSW,248,0.0,0.0,75,0.00,,,0.00,WUHU216HW,2013-03-23 04:16:00,
2013-03-23 00:21:00,25.3,18.4,30.13,WSW,248,0.0,0.0,75,0.00,,,0.00,WUHU216HW,2013-03-23 04:21:00,
2013-03-23 00:27:00,25.5,18.6,30.13,WSW,248,0.0,0.0,75,0.00,,,0.00,WUHU216HW,2013-03-23 04:27:00,
2013-03-23 00:32:00,25.5,18.6,30.13,WSW,248,0.0,0.0,75,0.00,,,0.00,WUHU216HW,2013-03-23 04:32:00,
2013-03-23 00:37:00,25.7,18.8,30.12,WSW,248,0.0,0.0,75,0.00,,,0.00,WUHU216HW,2013-03-23 04:37:00,
2013-03-23 00:42:00,25.8,18.9,30.12,West,270,0.0,0.0,75,0.00,,,0.00,WUHU216HW,2013-03-23 04:42:00,
2013-03-23 00:47:00,25.8,18.9,30.12,West,270,0.0,0.0,75,0.00,,,0.00,WUHU216HW,2013-03-23 04:47:00,
2013-03-23 00:52:00,25.8,18.9,30.12,West,270,0.0,0.0,75,0.00,,,0.00,WUHU216HW,2013-03-23 04:52:00,
2013-03-23 00:57:00,25.7,18.5,30.12,WSW,248,0.0,0.0,74,0.00,,,0.00,WUHU216HW,2013-03-23 04:57:00,
2013-03-23 01:02:00,25.3,18.1,30.12,WSW,248,0.0,0.0,74,0.00,,,0.00,WUHU216HW,2013-03-23 05:02:00,
2013-03-23 01:07:00,24.9,17.7,30.12,WSW,248,0.0,0.0,74,0.00,,,0.00,WUHU216HW,2013-03-23 05:07:00,
2013-03-23 01:12:00,24.6,17.7,30.11,WSW,248,0.0,0.0,75,0.00,,,0.00,WUHU216HW,2013-03-23 05:12:00,
2013-03-23 01:18:00,24.0,17.2,30.11,WSW,248,0.0,0.0,75,0.00,,,0.00,WUHU216HW,2013-03-23 05:18:00,
2013-03-23 01:23:00,24.0,17.2,30.11,WSW,248,0.0,0.0,75,0.00,,,0.00,WUHU216HW,2013-03-23 05:23:00,
2013-03-23 01:28:00,24.0,17.5,30.11,WSW,248,0.0,0.0,76,0.00,,,0.00,WUHU216HW,2013-03-23 05:28:00,
2013-03-23 01:33:00,24.4,17.9,30.11,WSW,248,0.0,0.0,76,0.00,,,0.00,WUHU216HW,2013-03-23 05:33:00,
2013-03-23 01:38:00,24.4,17.9,30.11,WSW,248,0.0,0.0,76,0.00,,,0.00,WUHU216HW,2013-03-23 05:38:00,
2013-03-23 01:43:00,24.6,18.1,30.11,WSW,248,0.0,0.0,76,0.00,,,0.00,WUHU216HW,2013-03-23 05:43:00,
2013-03-23 01:48:00,24.6,18.1,30.11,WSW,248,0.0,0.0,76,0.00,,,0.00,WUHU216HW,2013-03-23 05:48:00,
2013-03-23 01:53:00,24.6,18.1,30.11,WSW,248,0.0,0.0,76,0.00,,,0.00,WUHU216HW,2013-03-23 05:53:00,
2013-03-23 01:58:00,24.4,17.9,30.11,WSW,248,0.0,0.0,76,0.00,,,0.00,WUHU216HW,2013-03-23 05:58:00,
2013-03-23 02:03:00,24.4,17.9,30.11,WSW,248,0.0,0.0,76,0.00,,,0.00,WUHU216HW,2013-03-23 06:03:00,
2013-03-23 02:08:00,24.4,17.9,30.10,WSW,248,0.0,0.0,76,0.00,,,0.00,WUHU216HW,2013-03-23 06:08:00,
2013-03-23 02:13:00,24.4,17.9,30.10,WSW,248,0.0,0.0,76,0.00,,,0.00,WUHU216HW,2013-03-23 06:13:00,
2013-03-23 02:18:00,24.4,17.9,30.10,WSW,248,0.0,0.0,76,0.00,,,0.00,WUHU216HW,2013-03-23 06:18:00,
2013-03-23 02:23:00,24.4,17.9,30.10,WSW,248,0.0,0.0,76,0.00,,,0.00,WUHU216HW,2013-03-23 06:23:00,
2013-03-23 02:28:00,24.0,17.5,30.10,WSW,248,0.0,0.0,76,0.00,,,0.00,WUHU216HW,2013-03-23 06:28:00,
2013-03-23 02:33:00,24.0,17.5,30.11,WSW,248,0.0,0.0,76,0.00,,,0.00,WUHU216HW,2013-03-23 06:33:00,
2013-03-23 02:38:00,23.9,17.4,30.10,WSW,248,0.0,0.0,76,0.00,,,0.00,WUHU216HW,2013-03-23 06:38:00,
2013-03-23 02:43:00,24.0,17.5,30.11,West,270,0.0,0.0,76,0.00,,,0.00,WUHU216HW,2013-03-23 06:43:00,
2013-03-23 02:48:00,24.0,17.5,30.10,West,270,0.0,0.0,76,0.00,,,0.00,WUHU216HW,2013-03-23 06:48:00,
2013-03-23 02:53:00,24.0,17.5,30.10,West,270,0.0,0.0,76,0.00,,,0.00,WUHU216HW,2013-03-23 06:53:00,
2013-03-23 02:59:00,23.9,17.4,30.11,WSW,248,0.0,0.0,76,0.00,,,0.00,WUHU216HW,2013-03-23 06:59:00,
2013-03-23 03:04:00,23.5,17.3,30.10,WSW,248,0.0,0.0,77,0.00,,,0.00,WUHU216HW,2013-03-23 07:04:00,
2013-03-23 03:09:00,23.3,17.2,30.11,WSW,248,0.0,0.0,77,0.00,,,0.00,WUHU216HW,2013-03-23 07:09:00,
2013-03-23 03:14:00,23.1,17.0,30.10,WSW,248,0.0,0.0,77,0.00,,,0.00,WUHU216HW,2013-03-23 07:14:00,
2013-03-23 03:19:00,23.0,17.0,30.10,WSW,248,0.0,0.0,77,0.00,,,0.00,WUHU216HW,2013-03-23 07:19:00,
2013-03-23 03:24:00,23.1,17.0,30.10,WSW,248,0.0,0.0,77,0.00,,,0.00,WUHU216HW,2013-03-23 07:24:00,
2013-03-23 03:29:00,23.1,17.3,30.09,WSW,248,0.0,0.0,78,0.00,,,0.00,WUHU216HW,2013-03-23 07:29:00,
2013-03-23 03:34:00,23.5,17.6,30.09,WSW,248,0.0,0.0,78,0.00,,,0.00,WUHU216HW,2013-03-23 07:34:00,
2013-03-23 03:39:00,23.5,17.6,30.10,WSW,248,0.0,0.0,78,0.00,,,0.00,WUHU216HW,2013-03-23 07:39:00,
2013-03-23 03:44:00,23.5,17.6,30.09,WSW,248,0.0,0.0,78,0.00,,,0.00,WUHU216HW,2013-03-23 07:44:00,
2013-03-23 03:49:00,23.7,17.8,30.10,WSW,248,0.0,0.0,78,0.00,,,0.00,WUHU216HW,2013-03-23 07:49:00,
2013-03-23 03:54:00,23.9,18.0,30.09,WSW,248,0.0,0.0,78,0.00,,,0.00,WUHU216HW,2013-03-23 07:54:00,
2013-03-23 03:59:00,23.9,18.0,30.10,WSW,248,0.0,0.0,78,0.00,,,0.00,WUHU216HW,2013-03-23 07:59:00,
2013-03-23 04:04:00,23.9,18.2,30.09,WSW,248,0.0,0.0,78,0.00,,,0.00,WUHU216HW,2013-03-23 08:04:00,
2013-03-23 04:10:00,24.0,18.2,30.10,WSW,248,0.0,0.0,78,0.00,,,0.00,WUHU216HW,2013-03-23 08:10:00,
2013-03-23 04:15:00,23.9,18.0,30.09,WSW,248,0.0,0.0,78,0.00,,,0.00,WUHU216HW,2013-03-23 08:15:00,
2013-03-23 04:20:00,23.7,17.6,30.09,WSW,248,0.0,0.0,78,0.00,,,0.00,WUHU216HW,2013-03-23 08:20:00,
2013-03-23 04:25:00,23.5,17.6,30.09,WSW,248,0.0,0.0,78,0.00,,,0.00,WUHU216HW,2013-03-23 08:25:00,
2013-03-23 04:30:00,23.5,17.6,30.10,WSW,248,0.0,0.0,78,0.00,,,0.00,WUHU216HW,2013-03-23 08:30:00,
2013-03-23 04:35:00,23.5,17.6,30.09,WSW,248,0.0,0.0,78,0.00,,,0.00,WUHU216HW,2013-03-23 08:35:00,
2013-03-23 04:40:00,23.5,17.6,30.09,WSW,248,0.0,0.0,78,0.00,,,0.00,WUHU216HW,2013-03-23 08:40:00,
2013-03-23 04:45:00,23.1,17.3,30.10,WSW,248,0.0,0.0,78,0.00,,,0.00,WUHU216HW,2013-03-23 08:45:00,
2013-03-23 04:50:00,23.1,17.6,30.10,WSW,248,1.1,1.1,79,0.00,,,0.00,WUHU216HW,2013-03-23 08:50:00,
2013-03-23 04:55:00,22.8,17.2,30.10,SSW,203,1.3,2.2,79,0.00,,,0.00,WUHU216HW,2013-03-23 08:55:00,
2013-03-23 05:00:00,22.6,17.4,30.10,SSW,203,0.6,2.2,80,0.00,,,0.00,WUHU216HW,2013-03-23 09:00:00,
2013-03-23 05:05:00,22.4,17.2,30.10,SSW,203,0.0,1.7,80,0.00,,,0.00,WUHU216HW,2013-03-23 09:05:00,
2013-03-23 05:10:00,22.4,17.2,30.09,SSW,203,0.0,1.1,80,0.00,,,0.00,WUHU216HW,2013-03-23 09:10:00,
2013-03-23 05:15:00,22.8,17.8,30.09,SSW,203,0.0,0.0,81,0.00,,,0.00,WUHU216HW,2013-03-23 09:15:00,
2013-03-23 05:20:00,22.8,17.8,30.09,SSW,203,0.0,0.0,81,0.00,,,0.00,WUHU216HW,2013-03-23 09:20:00,
2013-03-23 05:25:00,23.0,18.0,30.09,ENE,68,0.0,0.0,81,0.00,,,0.00,WUHU216HW,2013-03-23 09:25:00,
2013-03-23 05:30:00,23.1,18.2,30.09,ENE,68,0.0,0.0,81,0.00,,,0.00,WUHU216HW,2013-03-23 09:30:00,
2013-03-23 05:36:00,23.1,18.2,30.09,ENE,68,0.0,0.0,81,0.00,,,0.00,WUHU216HW,2013-03-23 09:36:00,
2013-03-23 05:41:00,23.3,18.4,30.09,ENE,68,0.0,0.0,81,0.00,,,0.00,WUHU216HW,2013-03-23 09:41:00,
2013-03-23 05:46:00,23.5,18.5,30.09,ENE,68,0.0,0.0,81,0.00,,,0.00,WUHU216HW,2013-03-23 09:46:00,
2013-03-23 05:51:00,23.7,18.7,30.09,ENE,68,0.0,0.0,81,0.00,,,0.00,WUHU216HW,2013-03-23 09:51:00,
2013-03-23 05:56:00,23.7,18.7,30.08,ENE,68,0.0,0.0,81,0.00,,,0.00,WUHU216HW,2013-03-23 09:56:00,
2013-03-23 06:01:00,23.7,18.5,30.09,ENE,68,0.0,0.0,80,0.00,,,0.00,WUHU216HW,2013-03-23 10:01:00,
2013-03-23 06:06:00,23.5,18.3,30.08,ENE,68,0.0,0.0,80,0.00,,,0.00,WUHU216HW,2013-03-23 10:06:00,
2013-03-23 06:11:00,23.5,18.3,30.09,ENE,68,0.0,0.0,80,0.00,,,0.00,WUHU216HW,2013-03-23 10:11:00,
2013-03-23 06:17:00,23.5,18.5,30.08,ENE,68,0.0,0.0,81,0.00,,,0.00,WUHU216HW,2013-03-23 10:17:00,
2013-03-23 06:22:00,23.5,18.3,30.09,ENE,68,0.0,0.0,80,0.00,,,0.00,WUHU216HW,2013-03-23 10:22:00,
2013-03-23 06:27:00,23.5,18.3,30.09,ENE,68,0.0,0.0,80,0.00,,,0.00,WUHU216HW,2013-03-23 10:27:00,
2013-03-23 06:32:00,23.5,18.3,30.08,ENE,68,0.0,0.0,80,0.00,,,0.00,WUHU216HW,2013-03-23 10:32:00,
2013-03-23 06:37:00,23.5,18.3,30.09,ENE,68,0.0,0.0,80,0.00,,,0.00,WUHU216HW,2013-03-23 10:37:00,
2013-03-23 06:42:00,23.5,18.3,30.08,ENE,68,0.0,0.0,80,0.00,,,0.00,WUHU216HW,2013-03-23 10:42:00,
2013-03-23 06:47:00,23.5,18.5,30.09,ENE,68,0.0,0.0,81,0.00,,,0.00,WUHU216HW,2013-03-23 10:47:00,
2013-03-23 06:52:00,23.5,18.5,30.08,ENE,68,0.0,0.0,81,0.00,,,0.00,WUHU216HW,2013-03-23 10:52:00,
2013-03-23 06:57:00,23.5,18.5,30.09,ENE,68,0.0,0.0,81,0.00,,,0.00,WUHU216HW,2013-03-23 10:57:00,
2013-03-23 07:02:00,23.9,18.9,30.09,ENE,68,0.0,0.0,81,0.00,,,0.00,WUHU216HW,2013-03-23 11:02:00,
2013-03-23 07:08:00,23.9,18.9,30.09,ENE,68,0.0,0.0,81,0.00,,,0.00,WUHU216HW,2013-03-23 11:08:00,
2013-03-23 07:13:00,23.9,18.6,30.09,ENE,68,0.0,0.0,80,0.00,,,0.00,WUHU216HW,2013-03-23 11:13:00,
2013-03-23 07:18:00,23.9,18.6,30.09,ENE,68,0.0,0.0,80,0.00,,,0.00,WUHU216HW,2013-03-23 11:18:00,
2013-03-23 07:23:00,23.9,18.6,30.10,ENE,68,0.0,0.0,80,0.00,,,0.00,WUHU216HW,2013-03-23 11:23:00,
2013-03-23 07:28:00,23.7,18.5,30.11,ENE,68,0.0,0.0,80,0.00,,,0.00,WUHU216HW,2013-03-23 11:28:00,
2013-03-23 07:33:00,23.7,18.5,30.11,ENE,68,0.0,0.0,80,0.00,,,0.00,WUHU216HW,2013-03-23 11:33:00,
2013-03-23 07:38:00,23.7,18.7,30.11,ENE,68,0.0,0.0,81,0.00,,,0.00,WUHU216HW,2013-03-23 11:38:00,
2013-03-23 07:43:00,23.7,18.7,30.12,ENE,68,0.0,0.0,81,0.00,,,0.00,WUHU216HW,2013-03-23 11:43:00,
2013-03-23 07:48:00,23.7,18.7,30.12,ENE,68,0.0,0.0,81,0.00,,,0.00,WUHU216HW,2013-03-23 11:48:00,
2013-03-23 07:53:00,23.7,18.7,30.12,ENE,68,0.0,0.0,81,0.00,,,0.00,WUHU216HW,2013-03-23 11:53:00,
2013-03-23 07:58:00,23.5,18.5,30.13,ENE,68,0.0,0.0,81,0.00,,,0.00,WUHU216HW,2013-03-23 11:58:00,
2013-03-23 08:03:00,23.5,18.5,30.13,ENE,68,0.0,0.0,81,0.00,,,0.00,WUHU216HW,2013-03-23 12:03:00,
2013-03-23 08:08:00,23.5,18.5,30.13,ENE,68,0.0,0.0,81,0.00,,,0.00,WUHU216HW,2013-03-23 12:08:00,
2013-03-23 08:14:00,23.5,18.5,30.13,ENE,68,0.0,0.0,81,0.00,,,0.00,WUHU216HW,2013-03-23 12:14:00,
2013-03-23 08:19:00,23.5,18.5,30.13,ENE,68,0.0,0.0,81,0.00,,,0.00,WUHU216HW,2013-03-23 12:19:00,
2013-03-23 08:24:00,23.3,18.4,30.14,SE,135,0.0,1.5,81,0.00,,,0.00,WUHU216HW,2013-03-23 12:24:00,
2013-03-23 08:29:00,23.1,18.2,30.14,SE,135,0.0,1.5,81,0.00,,,0.00,WUHU216HW,2013-03-23 12:29:00,
2013-03-23 08:34:00,23.1,18.5,30.15,SE,135,0.0,0.0,82,0.00,,,0.00,WUHU216HW,2013-03-23 12:34:00,
2013-03-23 08:39:00,23.3,18.6,30.15,SE,135,0.0,0.0,82,0.00,,,0.00,WUHU216HW,2013-03-23 12:39:00,
2013-03-23 08:44:00,23.3,18.6,30.16,SE,135,0.0,0.0,82,0.00,,,0.00,WUHU216HW,2013-03-23 12:44:00,
2013-03-23 08:49:00,23.7,19.3,30.16,SE,135,0.0,0.0,83,0.00,,,0.00,WUHU216HW,2013-03-23 12:49:00,
2013-03-23 08:54:00,24.0,19.6,30.17,ESE,113,0.0,0.0,83,0.00,,,0.00,WUHU216HW,2013-03-23 12:54:00,
2013-03-23 08:59:00,24.6,20.2,30.17,ESE,113,0.0,0.0,83,0.00,,,0.00,WUHU216HW,2013-03-23 12:59:00,
2013-03-23 09:04:00,24.9,20.5,30.17,ESE,113,0.0,0.0,83,0.00,,,0.00,WUHU216HW,2013-03-23 13:04:00,
2013-03-23 09:09:00,25.3,20.8,30.18,ESE,113,0.0,0.0,83,0.00,,,0.00,WUHU216HW,2013-03-23 13:09:00,
2013-03-23 09:14:00,25.7,21.2,30.17,ESE,113,0.0,0.0,83,0.00,,,0.00,WUHU216HW,2013-03-23 13:14:00,
2013-03-23 09:20:00,26.2,21.7,30.17,ESE,113,0.0,0.0,83,0.00,,,0.00,WUHU216HW,2013-03-23 13:20:00,
2013-03-23 09:25:00,26.6,22.0,30.18,ESE,113,0.0,0.0,83,0.00,,,0.00,WUHU216HW,2013-03-23 13:25:00,
2013-03-23 09:30:00,27.1,22.3,30.18,ENE,68,0.0,0.0,82,0.00,,,0.00,WUHU216HW,2013-03-23 13:30:00,
2013-03-23 09:35:00,28.0,23.2,30.17,ENE,68,0.0,0.0,82,0.00,,,0.00,WUHU216HW,2013-03-23 13:35:00,
2013-03-23 09:40:00,28.2,23.3,30.17,ENE,68,0.0,0.0,82,0.00,,,0.00,WUHU216HW,2013-03-23 13:40:00,
2013-03-23 09:45:00,28.9,23.8,30.18,NE,45,0.0,0.0,81,0.00,,,0.00,WUHU216HW,2013-03-23 13:45:00,
2013-03-23 09:50:00,29.1,23.7,30.18,ESE,113,0.0,0.0,80,0.00,,,0.00,WUHU216HW,2013-03-23 13:50:00,
2013-03-23 09:55:00,29.3,23.5,30.18,ENE,68,0.0,0.0,79,0.00,,,0.00,WUHU216HW,2013-03-23 13:55:00,
2013-03-23 10:00:00,29.8,24.1,30.18,ESE,113,0.0,0.0,79,0.00,,,0.00,WUHU216HW,2013-03-23 14:00:00,
2013-03-23 10:05:00,30.0,23.9,30.18,ESE,113,2.2,2.2,78,0.00,,,0.00,WUHU216HW,2013-03-23 14:05:00,
2013-03-23 10:10:00,30.3,24.3,30.18,ENE,68,0.0,2.2,78,0.00,,,0.00,WUHU216HW,2013-03-23 14:10:00,
2013-03-23 10:15:00,30.7,24.3,30.19,NE,45,0.0,2.2,77,0.00,,,0.00,WUHU216HW,2013-03-23 14:15:00,
2013-03-23 10:20:00,30.9,24.5,30.20,SE,135,5.5,5.5,77,0.00,,,0.00,WUHU216HW,2013-03-23 14:20:00,
2013-03-23 10:25:00,30.9,24.2,30.20,NE,45,0.6,5.5,76,0.00,,,0.00,WUHU216HW,2013-03-23 14:25:00,
2013-03-23 10:30:00,31.6,24.6,30.20,NE,45,0.0,5.5,75,0.00,,,0.00,WUHU216HW,2013-03-23 14:30:00,
2013-03-23 10:35:00,31.6,24.6,30.20,ENE,68,1.1,1.5,75,0.00,,,0.00,WUHU216HW,2013-03-23 14:35:00,
2013-03-23 10:40:00,32.3,24.9,30.21,ENE,68,0.0,1.1,74,0.00,,,0.00,WUHU216HW,2013-03-23 14:40:00,
2013-03-23 10:45:00,32.7,24.9,30.21,NE,45,0.0,1.1,73,0.00,,,0.00,WUHU216HW,2013-03-23 14:45:00,
2013-03-23 10:51:00,33.0,25.3,30.21,SE,135,3.8,3.8,73,0.00,,,0.00,WUHU216HW,2013-03-23 14:51:00,
2013-03-23 10:56:00,32.9,24.8,30.21,ENE,68,0.8,3.8,72,0.00,,,0.00,WUHU216HW,2013-03-23 14:56:00,
2013-03-23 11:01:00,33.6,25.4,30.21,ENE,68,0.0,0.8,72,0.00,,,0.00,WUHU216HW,2013-03-23 15:01:00,
2013-03-23 11:06:00,33.6,25.1,30.22,ESE,113,0.0,1.5,71,0.00,,,0.00,WUHU216HW,2013-03-23 15:06:00,
2013-03-23 11:11:00,34.3,25.8,30.23,NE,45,0.0,1.5,71,0.00,,,0.00,WUHU216HW,2013-03-23 15:11:00,
2013-03-23 11:16:00,34.8,26.0,30.23,NW,315,0.0,0.0,70,0.00,,,0.00,WUHU216HW,2013-03-23 15:16:00,
2013-03-23 11:21:00,35.7,26.2,30.23,East,90,0.0,0.0,68,0.00,,,0.00,WUHU216HW,2013-03-23 15:21:00,
2013-03-23 11:26:00,35.9,26.4,30.23,NE,45,0.0,0.0,68,0.00,,,0.00,WUHU216HW,2013-03-23 15:26:00,
2013-03-23 11:31:00,36.5,26.5,30.23,NNW,338,1.3,1.3,67,0.00,,,0.00,WUHU216HW,2013-03-23 15:31:00,
2013-03-23 11:36:00,36.6,26.7,30.23,NNW,338,0.0,1.3,67,0.00,,,0.00,WUHU216HW,2013-03-23 15:36:00,
2013-03-23 11:41:00,37.5,27.2,30.23,NNW,338,2.2,2.2,66,0.00,,,0.00,WUHU216HW,2013-03-23 15:41:00,
2013-03-23 11:47:00,37.9,27.1,30.23,NNW,338,0.0,2.2,65,0.00,,,0.00,WUHU216HW,2013-03-23 15:47:00,
2013-03-23 11:52:00,38.4,26.9,30.22,ENE,68,0.0,0.0,63,0.00,,,0.00,WUHU216HW,2013-03-23 15:52:00,
2013-03-23 11:57:00,38.8,27.2,30.22,WNW,293,1.1,1.5,63,0.00,,,0.00,WUHU216HW,2013-03-23 15:57:00,
2013-03-23 12:02:00,39.0,27.0,30.22,NE,45,0.0,3.5,62,0.00,,,0.00,WUHU216HW,2013-03-23 16:02:00,
2013-03-23 12:07:00,39.5,27.5,30.22,NNW,338,8.5,8.5,62,0.00,,,0.00,WUHU216HW,2013-03-23 16:07:00,
2013-03-23 12:12:00,39.9,27.5,30.22,NE,45,0.0,8.5,61,0.00,,,0.00,WUHU216HW,2013-03-23 16:12:00,
2013-03-23 12:17:00,40.6,27.8,30.21,NE,45,2.4,8.5,60,0.00,,,0.00,WUHU216HW,2013-03-23 16:17:00,
2013-03-23 12:22:00,41.0,27.7,30.22,NNW,338,6.4,6.4,59,0.00,,,0.00,WUHU216HW,2013-03-23 16:22:00,
2013-03-23 12:27:00,41.3,27.6,30.22,NE,45,0.0,6.4,58,0.00,,,0.00,WUHU216HW,2013-03-23 16:27:00,
2013-03-23 12:32:00,41.7,27.5,30.22,North,0,0.0,6.4,57,0.00,,,0.00,WUHU216HW,2013-03-23 16:32:00,
2013-03-23 12:37:00,41.9,27.6,30.22,NNW,338,0.0,5.3,57,0.00,,,0.00,WUHU216HW,2013-03-23 16:37:00,
2013-03-23 12:42:00,41.9,27.6,30.22,NE,45,2.6,2.6,57,0.00,,,0.00,WUHU216HW,2013-03-23 16:42:00,
2013-03-23 12:47:00,41.9,27.0,30.22,NNW,338,1.1,2.6,57,0.00,,,0.00,WUHU216HW,2013-03-23 16:47:00,
2013-03-23 12:52:00,41.9,27.2,30.22,North,0,0.0,1.1,56,0.00,,,0.00,WUHU216HW,2013-03-23 16:52:00,
2013-03-23 12:58:00,42.0,27.4,30.22,ENE,68,0.8,2.2,56,0.00,,,0.00,WUHU216HW,2013-03-23 16:58:00,
2013-03-23 13:03:00,42.2,27.1,30.22,North,0,2.0,6.7,55,0.00,,,0.00,WUHU216HW,2013-03-23 17:03:00,
2013-03-23 13:08:00,42.0,26.9,30.22,NNW,338,4.2,6.9,55,0.00,,,0.00,WUHU216HW,2013-03-23 17:08:00,
2013-03-23 13:13:00,42.0,26.9,30.22,NW,315,5.1,6.9,55,0.00,,,0.00,WUHU216HW,2013-03-23 17:13:00,
2013-03-23 13:18:00,41.5,26.9,30.22,NNW,338,4.9,5.1,56,0.00,,,0.00,WUHU216HW,2013-03-23 17:18:00,
2013-03-23 13:23:00,40.8,26.2,30.22,NNW,338,3.5,8.5,56,0.00,,,0.00,WUHU216HW,2013-03-23 17:23:00,
2013-03-23 13:28:00,39.9,25.8,30.22,NW,315,4.6,8.5,57,0.00,,,0.00,WUHU216HW,2013-03-23 17:28:00,
2013-03-23 13:33:00,39.3,25.2,30.22,NW,315,0.0,7.3,57,0.00,,,0.00,WUHU216HW,2013-03-23 17:33:00,
2013-03-23 13:38:00,39.0,25.3,30.22,NNW,338,3.1,6.2,58,0.00,,,0.00,WUHU216HW,2013-03-23 17:38:00,
2013-03-23 13:43:00,39.3,26.1,30.23,North,0,5.3,6.2,59,0.00,,,0.00,WUHU216HW,2013-03-23 17:43:00,
2013-03-23 13:48:00,39.7,26.5,30.22,NNW,338,5.8,7.8,59,0.00,,,0.00,WUHU216HW,2013-03-23 17:48:00,
2013-03-23 13:53:00,40.1,26.4,30.22,NNW,338,1.3,7.8,58,0.00,,,0.00,WUHU216HW,2013-03-23 17:53:00,
2013-03-23 13:58:00,40.6,26.9,30.22,NNW,338,4.9,5.8,58,0.00,,,0.00,WUHU216HW,2013-03-23 17:58:00,
2013-03-23 14:03:00,41.0,26.8,30.22,NW,315,0.0,6.0,57,0.00,,,0.00,WUHU216HW,2013-03-23 18:03:00,
2013-03-23 14:08:00,41.0,27.0,30.22,NNW,338,6.0,8.2,57,0.00,,,0.00,WUHU216HW,2013-03-23 18:08:00,
2013-03-23 14:13:00,41.1,26.5,30.21,NNW,338,6.4,8.2,56,0.00,,,0.00,WUHU216HW,2013-03-23 18:13:00,
2013-03-23 14:19:00,41.5,27.3,30.21,NNW,338,4.6,6.4,57,0.00,,,0.00,WUHU216HW,2013-03-23 18:19:00,
2013-03-23 14:24:00,42.2,27.9,30.21,NNW,338,4.0,6.4,56,0.00,,,0.00,WUHU216HW,2013-03-23 18:24:00,
2013-03-23 14:29:00,43.3,28.6,30.21,North,0,0.0,6.2,56,0.00,,,0.00,WUHU216HW,2013-03-23 18:29:00,
2013-03-23 14:34:00,44.4,29.2,30.20,NW,315,4.9,6.2,55,0.00,,,0.00,WUHU216HW,2013-03-23 18:34:00,
2013-03-23 14:39:00,45.5,29.4,30.21,North,0,0.0,4.9,54,0.00,,,0.00,WUHU216HW,2013-03-23 18:39:00,
2013-03-23 14:44:00,46.0,29.7,30.20,NW,315,5.3,6.4,53,0.00,,,0.00,WUHU216HW,2013-03-23 18:44:00,
2013-03-23 14:49:00,46.2,29.4,30.20,NNW,338,0.0,6.7,52,0.00,,,0.00,WUHU216HW,2013-03-23 18:49:00,
2013-03-23 14:54:00,46.2,29.0,30.20,NW,315,4.9,6.7,51,0.00,,,0.00,WUHU216HW,2013-03-23 18:54:00,
2013-03-23 14:59:00,46.0,28.8,30.21,North,0,0.0,4.9,51,0.00,,,0.00,WUHU216HW,2013-03-23 18:59:00,
2013-03-23 15:04:00,45.6,28.5,30.20,NNW,338,3.8,4.9,51,0.00,,,0.00,WUHU216HW,2013-03-23 19:04:00,
2013-03-23 15:09:00,45.6,28.5,30.20,NNW,338,4.0,4.9,51,0.00,,,0.00,WUHU216HW,2013-03-23 19:09:00,
2013-03-23 15:14:00,45.5,28.4,30.21,NNW,338,6.7,6.7,51,0.00,,,0.00,WUHU216HW,2013-03-23 19:14:00,
2013-03-23 15:19:00,45.3,27.7,30.20,NNE,23,3.1,9.1,50,0.00,,,0.00,WUHU216HW,2013-03-23 19:19:00,
2013-03-23 15:24:00,45.1,27.6,30.20,NNW,338,6.4,9.1,50,0.00,,,0.00,WUHU216HW,2013-03-23 19:24:00,
2013-03-23 15:29:00,44.7,27.7,30.20,NNW,338,4.4,10.7,51,0.00,,,0.00,WUHU216HW,2013-03-23 19:29:00,
2013-03-23 15:35:00,44.4,27.4,30.20,NNW,338,5.8,10.7,51,0.00,,,0.00,WUHU216HW,2013-03-23 19:35:00,
2013-03-23 15:40:00,44.4,27.8,30.19,NNW,338,4.0,5.8,52,0.00,,,0.00,WUHU216HW,2013-03-23 19:40:00,
2013-03-23 15:45:00,44.6,28.0,30.19,NNW,338,8.2,8.2,52,0.00,,,0.00,WUHU216HW,2013-03-23 19:45:00,
2013-03-23 15:50:00,45.1,28.0,30.19,NW,315,2.0,8.2,51,0.00,,,0.00,WUHU216HW,2013-03-23 19:50:00,
2013-03-23 15:55:00,44.9,27.7,30.19,NNE,23,0.0,5.3,51,0.00,,,0.00,WUHU216HW,2013-03-23 19:55:00,
2013-03-23 16:00:00,44.9,27.9,30.19,NW,315,8.5,11.1,51,0.00,,,0.00,WUHU216HW,2013-03-23 20:00:00,
2013-03-23 16:05:00,45.1,28.0,30.20,North,0,0.0,11.1,51,0.00,,,0.00,WUHU216HW,2013-03-23 20:05:00,
2013-03-23 16:10:00,45.6,28.5,30.20,NW,315,7.1,8.5,50,0.00,,,0.00,WUHU216HW,2013-03-23 20:10:00,
2013-03-23 16:15:00,46.0,28.4,30.20,NW,315,5.8,7.1,50,0.00,,,0.00,WUHU216HW,2013-03-23 20:15:00,
2013-03-23 16:20:00,46.2,28.5,30.20,NNW,338,6.9,7.1,50,0.00,,,0.00,WUHU216HW,2013-03-23 20:20:00,
2013-03-23 16:25:00,46.5,28.3,30.19,NNW,338,6.2,6.9,49,0.00,,,0.00,WUHU216HW,2013-03-23 20:25:00,
2013-03-23 16:30:00,46.9,28.7,30.18,North,0,6.0,6.2,49,0.00,,,0.00,WUHU216HW,2013-03-23 20:30:00,
2013-03-23 16:35:00,47.3,28.4,30.18,NNW,338,4.9,6.2,48,0.00,,,0.00,WUHU216HW,2013-03-23 20:35:00,
2013-03-23 16:40:00,48.2,28.7,30.18,NNW,338,5.3,6.0,47,0.00,,,0.00,WUHU216HW,2013-03-23 20:40:00,
2013-03-23 16:45:00,48.5,29.1,30.19,NNW,338,5.3,5.3,47,0.00,,,0.00,WUHU216HW,2013-03-23 20:45:00,
2013-03-23 16:50:00,48.5,29.1,30.19,NNW,338,8.9,8.9,47,0.00,,,0.00,WUHU216HW,2013-03-23 20:50:00,
2013-03-23 16:55:00,48.5,29.1,30.18,North,0,0.0,8.9,47,0.00,,,0.00,WUHU216HW,2013-03-23 20:55:00,
2013-03-23 17:00:00,48.7,28.7,30.18,NNW,338,0.6,5.1,46,0.00,,,0.00,WUHU216HW,2013-03-23 21:00:00,
2013-03-23 17:05:00,48.9,28.9,30.18,NNW,338,4.2,4.2,46,0.00,,,0.00,WUHU216HW,2013-03-23 21:05:00,
2013-03-23 17:10:00,49.2,29.0,30.18,NNW,338,6.4,11.8,46,0.00,,,0.00,WUHU216HW,2013-03-23 21:10:00,
2013-03-23 17:16:00,49.4,28.8,30.18,NNE,23,0.0,11.8,45,0.00,,,0.00,WUHU216HW,2013-03-23 21:16:00,
2013-03-23 17:21:00,49.2,28.7,30.18,NNE,23,0.0,6.7,45,0.00,,,0.00,WUHU216HW,2013-03-23 21:21:00,
2013-03-23 17:26:00,49.6,29.0,30.19,WNW,293,3.1,3.1,45,0.00,,,0.00,WUHU216HW,2013-03-23 21:26:00,
2013-03-23 17:31:00,49.2,28.7,30.19,NE,45,0.0,6.2,45,0.00,,,0.00,WUHU216HW,2013-03-23 21:31:00,
2013-03-23 17:36:00,49.1,27.9,30.19,West,270,6.0,6.2,44,0.00,,,0.00,WUHU216HW,2013-03-23 21:36:00,
2013-03-23 17:41:00,48.5,28.0,30.19,NNW,338,7.6,7.6,45,0.00,,,0.00,WUHU216HW,2013-03-23 21:41:00,
2013-03-23 17:47:00,48.2,27.1,30.19,North,0,7.3,7.6,44,0.00,,,0.00,WUHU216HW,2013-03-23 21:47:00,
2013-03-23 17:52:00,47.8,27.3,30.19,NNW,338,4.4,7.3,45,0.00,,,0.00,WUHU216HW,2013-03-23 21:52:00,
2013-03-23 17:57:00,47.6,27.1,30.18,North,0,1.3,6.9,45,0.00,,,0.00,WUHU216HW,2013-03-23 21:57:00,
2013-03-23 18:02:00,47.4,26.4,30.18,North,0,7.1,7.1,44,0.00,,,0.00,WUHU216HW,2013-03-23 22:02:00,
2013-03-23 18:07:00,46.9,26.5,30.17,NW,315,0.8,8.0,45,0.00,,,0.00,WUHU216HW,2013-03-23 22:07:00,
2013-03-23 18:12:00,46.5,26.2,30.16,NE,45,0.0,8.5,45,0.00,,,0.00,WUHU216HW,2013-03-23 22:12:00,
2013-03-23 18:17:00,46.2,26.4,30.17,NNW,338,0.0,8.5,46,0.00,,,0.00,WUHU216HW,2013-03-23 22:17:00,
2013-03-23 18:22:00,46.0,26.8,30.16,NNE,23,0.0,0.0,47,0.00,,,0.00,WUHU216HW,2013-03-23 22:22:00,
2013-03-23 18:27:00,45.6,26.4,30.17,NNW,338,8.9,8.9,47,0.00,,,0.00,WUHU216HW,2013-03-23 22:27:00,
2013-03-23 18:32:00,45.3,26.5,30.17,NNW,338,6.2,8.9,48,0.00,,,0.00,WUHU216HW,2013-03-23 22:32:00,
2013-03-23 18:37:00,44.6,26.0,30.17,NNW,338,5.3,8.9,48,0.00,,,0.00,WUHU216HW,2013-03-23 22:37:00,
2013-03-23 18:42:00,43.8,25.9,30.16,NW,315,7.6,7.6,49,0.00,,,0.00,WUHU216HW,2013-03-23 22:42:00,
2013-03-23 18:48:00,43.1,25.8,30.16,NNW,338,13.1,13.1,50,0.00,,,0.00,WUHU216HW,2013-03-23 22:48:00,
2013-03-23 18:53:00,42.6,25.3,30.16,NE,45,3.8,13.1,50,0.00,,,0.00,WUHU216HW,2013-03-23 22:53:00,
2013-03-23 18:58:00,41.9,25.0,30.16,NNE,23,6.2,13.1,51,0.00,,,0.00,WUHU216HW,2013-03-23 22:58:00,
2013-03-23 19:03:00,41.3,24.9,30.16,North,0,0.6,13.1,52,0.00,,,0.00,WUHU216HW,2013-03-23 23:03:00,
2013-03-23 19:08:00,40.6,24.7,30.16,NNW,338,5.1,7.8,53,0.00,,,0.00,WUHU216HW,2013-03-23 23:08:00,
2013-03-23 19:13:00,40.2,24.8,30.16,NNW,338,7.1,7.8,54,0.00,,,0.00,WUHU216HW,2013-03-23 23:13:00,
2013-03-23 19:18:00,39.7,24.3,30.16,NNW,338,3.3,7.1,54,0.00,,,0.00,WUHU216HW,2013-03-23 23:18:00,
2013-03-23 19:23:00,39.3,24.4,30.16,NNW,338,6.4,7.1,55,0.00,,,0.00,WUHU216HW,2013-03-23 23:23:00,
2013-03-23 19:28:00,39.0,24.0,30.16,NNW,338,2.2,6.4,55,0.00,,,0.00,WUHU216HW,2013-03-23 23:28:00,
2013-03-23 19:33:00,39.0,24.5,30.15,North,0,0.0,6.4,56,0.00,,,0.00,WUHU216HW,2013-03-23 23:33:00,
2013-03-23 19:38:00,38.6,24.2,30.16,NNW,338,5.5,5.5,56,0.00,,,0.00,WUHU216HW,2013-03-23 23:38:00,
2013-03-23 19:44:00,38.3,24.3,30.16,NE,45,0.0,5.5,57,0.00,,,0.00,WUHU216HW,2013-03-23 23:44:00,
2013-03-23 19:49:00,38.1,24.1,30.15,North,0,0.0,5.5,57,0.00,,,0.00,WUHU216HW,2013-03-23 23:49:00,
2013-03-23 19:54:00,37.9,24.4,30.16,North,0,1.7,2.9,58,0.00,,,0.00,WUHU216HW,2013-03-23 23:54:00,
2013-03-23 19:59:00,37.4,23.9,30.16,NNW,338,2.0,6.0,58,0.00,,,0.00,WUHU216HW,2013-03-23 23:59:00,
2013-03-23 20:04:00,37.2,23.7,30.16,NNW,338,0.0,6.0,58,0.00,,,0.00,WUHU216HW,2013-03-24 00:04:00,
2013-03-23 20:09:00,36.8,23.8,30.16,NNE,23,0.0,1.5,59,0.00,,,0.00,WUHU216HW,2013-03-24 00:09:00,
2013-03-23 20:14:00,36.6,23.7,30.16,North,0,4.0,4.0,59,0.00,,,0.00,WUHU216HW,2013-03-24 00:14:00,
2013-03-23 20:19:00,36.3,23.8,30.16,North,0,0.0,4.0,60,0.00,,,0.00,WUHU216HW,2013-03-24 00:19:00,
2013-03-23 20:24:00,36.1,23.6,30.15,North,0,0.0,0.0,60,0.00,,,0.00,WUHU216HW,2013-03-24 00:24:00,
2013-03-23 20:29:00,35.9,23.5,30.15,NE,45,0.0,0.0,60,0.00,,,0.00,WUHU216HW,2013-03-24 00:29:00,
2013-03-23 20:34:00,35.7,23.7,30.15,North,0,0.0,0.0,61,0.00,,,0.00,WUHU216HW,2013-03-24 00:34:00,
2013-03-23 20:39:00,35.7,23.7,30.15,ENE,68,0.0,0.0,61,0.00,,,0.00,WUHU216HW,2013-03-24 00:39:00,
2013-03-23 20:44:00,35.7,23.7,30.15,NE,45,0.0,3.1,61,0.00,,,0.00,WUHU216HW,2013-03-24 00:44:00,
2013-03-23 20:49:00,35.7,23.7,30.14,NE,45,0.0,3.1,61,0.00,,,0.00,WUHU216HW,2013-03-24 00:49:00,
2013-03-23 20:54:00,35.6,23.5,30.15,NE,45,0.0,2.0,61,0.00,,,0.00,WUHU216HW,2013-03-24 00:54:00,
2013-03-23 20:59:00,35.4,23.3,30.15,NE,45,0.0,2.0,62,0.00,,,0.00,WUHU216HW,2013-03-24 00:59:00,
2013-03-23 21:04:00,35.4,23.7,30.15,NE,45,0.0,0.0,62,0.00,,,0.00,WUHU216HW,2013-03-24 01:04:00,
2013-03-23 21:09:00,35.4,23.7,30.15,NE,45,0.0,0.0,62,0.00,,,0.00,WUHU216HW,2013-03-24 01:09:00,
2013-03-23 21:15:00,35.4,23.7,30.16,NE,45,0.0,0.0,62,0.00,,,0.00,WUHU216HW,2013-03-24 01:15:00,
2013-03-23 21:20:00,35.4,23.7,30.15,NE,45,0.0,0.0,62,0.00,,,0.00,WUHU216HW,2013-03-24 01:20:00,
2013-03-23 21:25:00,35.4,23.7,30.15,NE,45,0.0,0.0,62,0.00,,,0.00,WUHU216HW,2013-03-24 01:25:00,
2013-03-23 21:30:00,35.4,23.7,30.16,ENE,68,0.8,0.8,62,0.00,,,0.00,WUHU216HW,2013-03-24 01:30:00,
2013-03-23 21:35:00,35.2,23.5,30.16,NE,45,1.5,1.5,62,0.00,,,0.00,WUHU216HW,2013-03-24 01:35:00,
2013-03-23 21:40:00,34.8,23.1,30.16,NE,45,0.0,2.0,62,0.00,,,0.00,WUHU216HW,2013-03-24 01:40:00,
2013-03-23 21:45:00,34.8,23.1,30.16,ENE,68,2.2,2.2,62,0.00,,,0.00,WUHU216HW,2013-03-24 01:45:00,
2013-03-23 21:50:00,34.7,23.0,30.16,NE,45,0.0,2.2,62,0.00,,,0.00,WUHU216HW,2013-03-24 01:50:00,
2013-03-23 21:55:00,34.5,22.8,30.16,ENE,68,0.0,2.2,62,0.00,,,0.00,WUHU216HW,2013-03-24 01:55:00,
2013-03-23 22:01:00,34.3,23.0,30.15,NE,45,0.0,3.8,63,0.00,,,0.00,WUHU216HW,2013-03-24 02:01:00,
2013-03-23 22:06:00,34.1,22.4,30.15,NE,45,1.5,4.2,62,0.00,,,0.00,WUHU216HW,2013-03-24 02:06:00,
2013-03-23 22:11:00,33.8,22.1,30.14,ENE,68,0.0,4.2,62,0.00,,,0.00,WUHU216HW,2013-03-24 02:11:00,
2013-03-23 22:16:00,33.6,22.2,30.13,NE,45,0.0,3.1,63,0.00,,,0.00,WUHU216HW,2013-03-24 02:16:00,
2013-03-23 22:21:00,33.4,21.7,30.13,NNE,23,1.3,2.2,62,0.00,,,0.00,WUHU216HW,2013-03-24 02:21:00,
2013-03-23 22:26:00,32.9,21.2,30.13,NE,45,2.2,2.2,62,0.00,,,0.00,WUHU216HW,2013-03-24 02:26:00,
2013-03-23 22:31:00,32.7,21.4,30.12,NE,45,0.0,2.2,63,0.00,,,0.00,WUHU216HW,2013-03-24 02:31:00,
2013-03-23 22:37:00,32.3,21.1,30.12,NE,45,0.8,0.8,63,0.00,,,0.00,WUHU216HW,2013-03-24 02:37:00,
2013-03-23 22:42:00,32.1,21.0,30.12,NE,45,0.0,0.8,63,0.00,,,0.00,WUHU216HW,2013-03-24 02:42:00,
2013-03-23 22:47:00,32.1,21.0,30.12,NE,45,2.9,2.9,63,0.00,,,0.00,WUHU216HW,2013-03-24 02:47:00,
2013-03-23 22:52:00,31.8,21.0,30.11,NE,45,0.0,2.9,64,0.00,,,0.00,WUHU216HW,2013-03-24 02:52:00,
2013-03-23 22:57:00,31.6,20.8,30.12,NNE,23,0.0,2.2,64,0.00,,,0.00,WUHU216HW,2013-03-24 02:57:00,
2013-03-23 23:02:00,31.6,20.8,30.12,NNE,23,0.0,0.0,64,0.00,,,0.00,WUHU216HW,2013-03-24 03:02:00,
2013-03-23 23:07:00,31.6,20.8,30.11,NE,45,0.0,0.0,64,0.00,,,0.00,WUHU216HW,2013-03-24 03:07:00,
2013-03-23 23:12:00,31.2,20.4,30.11,NE,45,0.0,0.0,64,0.00,,,0.00,WUHU216HW,2013-03-24 03:12:00,
2013-03-23 23:17:00,31.2,20.4,30.11,NE,45,0.0,0.0,64,0.00,,,0.00,WUHU216HW,2013-03-24 03:17:00,
2013-03-23 23:22:00,31.1,20.3,30.11,NE,45,0.0,0.0,64,0.00,,,0.00,WUHU216HW,2013-03-24 03:22:00,
2013-03-23 23:27:00,30.9,20.4,30.11,NE,45,0.0,0.0,65,0.00,,,0.00,WUHU216HW,2013-03-24 03:27:00,
2013-03-23 23:32:00,30.7,20.3,30.11,NE,45,1.5,1.5,65,0.00,,,0.00,WUHU216HW,2013-03-24 03:32:00,
2013-03-23 23:37:00,30.7,20.3,30.10,NE,45,2.0,2.0,65,0.00,,,0.00,WUHU216HW,2013-03-24 03:37:00,
2013-03-23 23:43:00,30.5,20.1,30.09,NE,45,0.0,2.0,66,0.00,,,0.00,WUHU216HW,2013-03-24 03:43:00,
2013-03-23 23:48:00,30.3,20.3,30.09,NE,45,0.0,0.0,66,0.00,,,0.00,WUHU216HW,2013-03-24 03:48:00,
2013-03-23 23:53:00,30.3,20.3,30.09,ENE,68,0.8,0.8,66,0.00,,,0.00,WUHU216HW,2013-03-24 03:53:00,
2013-03-23 23:58:00,30.2,20.1,30.09,NE,45,0.0,0.8,66,0.00,,,0.00,WUHU216HW,2013-03-24 03:58:00,